Buzzards Bay, MA

9:46 PM EST on January 19, 2017 (GMT -0500)
Cape Cod Coast Guard Air Station

Weather History for KFMH - September, 2012

Change the Weather History Date:

Tuesday, September 18, 2012

  Actual Average Record
Temperature  
Mean Temperature 62 °F -  
Max Temperature 73 °F 69 °F 80 °F (2015)
Min Temperature 50 °F 53 °F 37 °F (2013)
Degree Days  
Heating Degree Days 4    
Growing Degree Days 12 (Base 50)    
Moisture  
Dew Point 60 °F    
Average Humidity 83    
Maximum Humidity 100    
Minimum Humidity 69    
Precipitation  
Precipitation 0.00 in - - ()
Sea Level Pressure  
Sea Level Pressure 29.97 in    
Wind  
Wind Speed 9 mph (South)    
Max Wind Speed 28 mph    
Max Gust Speed 37 mph    
Visibility 10 miles    
Events      
Averages and records for this station are not official NWS values.
T = Trace of Precipitation, MM = Missing Value Source: NWS Daily Summary

Daily Weather History Graph

Daily Weather History Graph

Search for Another Location

Airport or City:

Trip Planner

Search our weather history database for the weather conditions in past years. The results will help you decide how hot, cold, wet, or windy it might be!

Date:

Astronomy

Sep. 18, 2012 Rise Set
Actual Time 6:25 AM EDT 6:45 PM EDT
Civil Twilight 5:58 AM EDT 7:13 PM EDT
Nautical Twilight 5:25 AM EDT 7:45 PM EDT
Astronomical Twilight 4:51 AM EDT 8:19 PM EDT
Moon 9:25 AM EDT (9/18) 8:02 PM EDT (9/18)
Length of Visible Light 13h 15m
Length of Day
12h 19m
Waxing Crescent, 9% of the Moon is Illuminated
Sep 18
Waxing Crescent
Sep 22
First Quarter
Sep 29
Full
Oct 8
Last Quarter
Oct 15
New

Hourly Weather History & Observations

Time (EDT) Temp. Dew Point Humidity Pressure Visibility Wind Dir Wind Speed Gust Speed Precip Events Conditions
12:15 AM 55.4 °F 53.6 °F 94% 30.09 in 10.0 mi Calm Calm - N/A   Clear
12:35 AM 55.4 °F 53.6 °F 94% 30.09 in 10.0 mi Calm Calm - N/A   Clear
12:55 AM 55.4 °F 53.6 °F 94% 30.09 in 10.0 mi Calm Calm - N/A   Clear
1:15 AM 53.6 °F 50.0 °F 88% 30.09 in 10.0 mi Calm Calm - N/A   Clear
1:35 AM 55.4 °F 53.6 °F 94% 30.09 in 10.0 mi Calm Calm - N/A   Clear
1:55 AM 55.4 °F 51.8 °F 88% 30.09 in 10.0 mi Calm Calm - N/A   Clear
2:15 AM 53.6 °F 50.0 °F 88% 30.08 in 10.0 mi Calm Calm - N/A   Clear
2:35 AM 51.8 °F 50.0 °F 94% 30.08 in 10.0 mi Calm Calm - N/A   Clear
2:55 AM 50.0 °F 48.2 °F 94% 30.07 in 10.0 mi Calm Calm - N/A   Clear
3:15 AM 50.0 °F 50.0 °F 100% 30.07 in 10.0 mi Calm Calm - N/A   Clear
3:35 AM 50.0 °F 50.0 °F 100% 30.07 in 10.0 mi Calm Calm - N/A   Clear
3:55 AM 50.0 °F 50.0 °F 100% 30.06 in 10.0 mi Calm Calm - N/A   Clear
4:15 AM 51.8 °F 50.0 °F 94% 30.07 in 10.0 mi Calm Calm - N/A   Clear
4:35 AM 50.0 °F 48.2 °F 94% 30.07 in 10.0 mi Calm Calm - N/A   Clear
4:55 AM 50.0 °F 48.2 °F 94% 30.07 in 10.0 mi Calm Calm - N/A   Clear
5:15 AM 51.8 °F 50.0 °F 94% 30.06 in 10.0 mi Calm Calm - N/A   Clear
5:35 AM 53.6 °F 51.8 °F 94% 30.06 in 10.0 mi Calm Calm - N/A   Clear
5:55 AM 55.4 °F 53.6 °F 94% 30.05 in 10.0 mi SE 3.5 mph - N/A   Clear
6:15 AM 55.4 °F 53.6 °F 94% 30.05 in 10.0 mi SE 3.5 mph - N/A   Clear
6:35 AM 55.4 °F 53.6 °F 94% 30.05 in 10.0 mi SSE 5.8 mph - N/A   Clear
6:55 AM 55.4 °F 53.6 °F 94% 30.05 in 10.0 mi South 5.8 mph - N/A   Clear
10:55 AM 71.6 °F 60.8 °F 69% 30.03 in 10.0 mi South 16.1 mph 27.6 mph N/A   Mostly Cloudy
11:15 AM 73.4 °F 62.6 °F 69% 30.01 in 10.0 mi South 17.3 mph 21.9 mph N/A   Partly Cloudy
11:35 AM 71.6 °F 62.6 °F 73% 30.01 in 10.0 mi South 18.4 mph 29.9 mph N/A   Scattered Clouds
12:15 PM 71.6 °F 62.6 °F 73% 30.00 in 10.0 mi South 20.7 mph 26.5 mph N/A   Overcast
12:35 PM 73.4 °F 62.6 °F 69% 29.99 in 10.0 mi South 19.6 mph 27.6 mph N/A   Scattered Clouds
12:55 PM 71.6 °F 62.6 °F 73% 29.99 in 10.0 mi South 25.3 mph 31.1 mph N/A   Clear
1:15 PM 73.4 °F 64.4 °F 73% 29.98 in 10.0 mi South 20.7 mph 26.5 mph N/A   Partly Cloudy
1:35 PM 73.4 °F 64.4 °F 73% 29.97 in 10.0 mi South 26.5 mph 33.4 mph N/A   Mostly Cloudy
1:55 PM 73.4 °F 64.4 °F 73% 29.96 in 10.0 mi South 21.9 mph 32.2 mph N/A   Scattered Clouds
2:15 PM 73.4 °F 64.4 °F 73% 29.95 in 10.0 mi South 24.2 mph 33.4 mph N/A   Partly Cloudy
2:35 PM 73.4 °F 64.4 °F 73% 29.95 in 10.0 mi South 20.7 mph 34.5 mph N/A   Mostly Cloudy
2:55 PM 73.4 °F 64.4 °F 73% 29.94 in 10.0 mi South 20.7 mph 29.9 mph N/A   Overcast
3:15 PM 71.6 °F 64.4 °F 78% 29.93 in 10.0 mi South 18.4 mph 28.8 mph N/A   Overcast
3:35 PM 71.6 °F 64.4 °F 78% 29.93 in 10.0 mi South 24.2 mph 33.4 mph N/A   Overcast
3:55 PM 71.6 °F 64.4 °F 78% 29.92 in 10.0 mi South 23.0 mph 31.1 mph N/A   Overcast
4:15 PM 71.6 °F 64.4 °F 78% 29.92 in 10.0 mi South 19.6 mph 31.1 mph N/A   Mostly Cloudy
4:35 PM 71.6 °F 64.4 °F 78% 29.92 in 10.0 mi South 19.6 mph 29.9 mph N/A   Overcast
4:55 PM 73.4 °F 64.4 °F 73% 29.91 in 10.0 mi South 20.7 mph 29.9 mph N/A   Overcast
5:15 PM 73.4 °F 66.2 °F 78% 29.90 in 10.0 mi South 20.7 mph 29.9 mph N/A   Mostly Cloudy
5:35 PM 71.6 °F 66.2 °F 83% 29.90 in 10.0 mi South 18.4 mph 27.6 mph N/A   Mostly Cloudy
5:55 PM 71.6 °F 66.2 °F 83% 29.91 in 10.0 mi South 17.3 mph 24.2 mph N/A   Overcast
6:15 PM 71.6 °F 66.2 °F 83% 29.90 in 10.0 mi South 19.6 mph 31.1 mph N/A   Overcast
6:35 PM 71.6 °F 66.2 °F 83% 29.89 in 10.0 mi South 21.9 mph 27.6 mph N/A   Overcast
6:55 PM 71.6 °F 66.2 °F 83% 29.89 in 10.0 mi South 19.6 mph 36.8 mph N/A   Mostly Cloudy
7:15 PM 71.6 °F 64.4 °F 78% 29.89 in 10.0 mi South 25.3 mph 36.8 mph N/A   Partly Cloudy
7:35 PM 71.6 °F 64.4 °F 78% 29.88 in 10.0 mi South 25.3 mph 33.4 mph N/A   Clear
7:55 PM 71.6 °F 64.4 °F 78% 29.87 in 10.0 mi South 24.2 mph 34.5 mph N/A   Clear
8:15 PM 71.6 °F 64.4 °F 78% 29.87 in 10.0 mi South 23.0 mph 33.4 mph N/A   Partly Cloudy
8:35 PM 71.6 °F 64.4 °F 78% 29.87 in 10.0 mi South 21.9 mph 32.2 mph N/A   Partly Cloudy
8:55 PM 71.6 °F 64.4 °F 78% 29.86 in 10.0 mi South 24.2 mph 31.1 mph N/A   Mostly Cloudy
9:15 PM 71.6 °F 64.4 °F 78% 29.86 in 10.0 mi South 25.3 mph 35.7 mph N/A   Overcast
9:35 PM 71.6 °F 64.4 °F 78% 29.85 in 10.0 mi South 24.2 mph 35.7 mph N/A   Overcast
9:55 PM 71.6 °F 66.2 °F 83% 29.85 in 10.0 mi South 23.0 mph 33.4 mph N/A   Mostly Cloudy
10:15 PM 71.6 °F 66.2 °F 83% 29.84 in 10.0 mi South 20.7 mph 34.5 mph N/A   Mostly Cloudy
10:35 PM 71.6 °F 66.2 °F 83% 29.84 in 10.0 mi South 23.0 mph 36.8 mph N/A   Mostly Cloudy
10:55 PM 71.6 °F 66.2 °F 83% 29.84 in 10.0 mi South 21.9 mph 34.5 mph N/A   Mostly Cloudy
11:15 PM 71.6 °F 66.2 °F 83% 29.83 in 10.0 mi South 24.2 mph 36.8 mph N/A   Overcast
11:35 PM 71.6 °F 66.2 °F 83% 29.82 in 10.0 mi South 25.3 mph 36.8 mph N/A   Overcast
11:55 PM 71.6 °F 68.0 °F 88% 29.82 in 10.0 mi South 27.6 mph 34.5 mph N/A   Overcast